Altoona, PA

5:26 AM EDT on August 20, 2019 (GMT -0400)
Altoona-Blair County

Weather History for KAOO - May, 2019

Change the Weather History Date:

Tuesday, May 21, 2019

  Actual Average Record
Temperature  
Mean Temperature 56 °F 59 °F  
Max Temperature 65 °F 70 °F 89 °F (1977)
Min Temperature 47 °F 49 °F 31 °F (2002)
Degree Days  
Heating Degree Days 9 7  
Month to date heating degree days 108 188  
Since 1 July heating degree days 5662 6106  
Cooling Degree Days 0 1  
Month to date cooling degree days 22 11  
Year to date cooling degree days 22 17  
Growing Degree Days 6 (Base 50)    
Moisture  
Dew Point 39 °F    
Average Humidity 57    
Maximum Humidity 74    
Minimum Humidity 39    
Precipitation  
Precipitation 0.00 in 0.12 in 1.14 in (2016)
Month to date precipitation 4.19 2.49  
Year to date precipitation 17.00 12.96  
Sea Level Pressure  
Sea Level Pressure 30.08 in    
Wind  
Wind Speed 9 mph (NW)    
Max Wind Speed 23 mph    
Max Gust Speed 29 mph    
Visibility 10 miles    
Events      
T = Trace of Precipitation, MM = Missing Value Source: NWS Daily Summary

Daily Weather History Graph

Daily Weather History Graph

Search for Another Location

Airport or City:

Astronomy

May. 21, 2019 Rise Set
Actual Time 5:52 AM EDT 8:27 PM EDT
Civil Twilight 5:21 AM EDT 8:59 PM EDT
Nautical Twilight 4:41 AM EDT 9:38 PM EDT
Astronomical Twilight 3:58 AM EDT 10:22 PM EDT
Moon 11:22 PM EDT (5/21) 8:06 AM EDT (5/21)
Length of Visible Light 15h 38m
Length of Day
14h 35m
Waning Gibbous, 91% of the Moon is Illuminated
May 21
Waning Gibbous
May 26
Last Quarter
Jun 3
New
Jun 10
First Quarter
Jun 17
Full

Hourly Weather History & Observations

Time (EDT) Temp. Dew Point Humidity Pressure Visibility Wind Dir Wind Speed Gust Speed Precip Events Conditions
12:53 AM 55.9 °F 46.0 °F 69% 29.96 in 10.0 mi NNW 9.2 mph - N/A   Overcast
1:53 AM 54.0 °F 43.0 °F 66% 29.98 in 10.0 mi NNW 13.8 mph 20.7 mph N/A   Overcast
2:53 AM 53.1 °F 42.1 °F 66% 30.00 in 10.0 mi NNW 8.1 mph - N/A   Overcast
3:53 AM 52.0 °F 39.0 °F 61% 30.00 in 10.0 mi NNW 11.5 mph - N/A   Overcast
4:51 AM 50.0 °F 39.2 °F 66% 30.02 in 10.0 mi NNW 13.8 mph 20.7 mph N/A   Overcast
4:53 AM 50.0 °F 39.0 °F 66% 30.01 in 10.0 mi NW 11.5 mph 20.7 mph N/A   Overcast
5:53 AM 50.0 °F 37.9 °F 63% 30.02 in 10.0 mi NNW 11.5 mph 19.6 mph N/A   Mostly Cloudy
6:16 AM 48.0 °F 37.0 °F 66% 30.03 in 10.0 mi NNW 18.4 mph 24.2 mph N/A   Partly Cloudy
6:53 AM 48.0 °F 35.1 °F 61% 30.05 in 10.0 mi NNW 16.1 mph 24.2 mph N/A   Clear
7:53 AM 48.0 °F 35.1 °F 61% 30.08 in 10.0 mi NNW 9.2 mph - N/A   Mostly Cloudy
8:53 AM 51.1 °F 36.0 °F 56% 30.09 in 10.0 mi North 11.5 mph 17.3 mph N/A   Clear
9:53 AM 53.1 °F 36.0 °F 52% 30.13 in 9.0 mi NNW 10.4 mph - N/A   Clear
10:53 AM 55.9 °F 36.0 °F 47% 30.10 in 10.0 mi NNW 11.5 mph - N/A   Clear
11:53 AM 59.0 °F 37.9 °F 46% 30.12 in 10.0 mi NW 10.4 mph - N/A   Clear
12:53 PM 62.1 °F 37.9 °F 41% 30.09 in 10.0 mi NW 10.4 mph - N/A   Clear
1:53 PM 62.1 °F 37.9 °F 41% 30.09 in 10.0 mi North 17.3 mph 25.3 mph N/A   Scattered Clouds
2:53 PM 63.0 °F 39.0 °F 41% 30.09 in 10.0 mi North 15.0 mph 20.7 mph N/A   Clear
3:53 PM 62.1 °F 39.0 °F 43% 30.11 in 10.0 mi NW 9.2 mph - N/A   Overcast
4:53 PM 63.0 °F 39.9 °F 43% 30.10 in 10.0 mi NW 6.9 mph 19.6 mph N/A   Partly Cloudy
5:53 PM 63.0 °F 39.9 °F 43% 30.10 in 10.0 mi WNW 6.9 mph - N/A   Clear
6:53 PM 64.0 °F 41.0 °F 43% 30.11 in 7.0 mi West 8.1 mph - N/A   Clear
7:53 PM 61.0 °F 42.1 °F 50% 30.13 in 10.0 mi West 6.9 mph - N/A   Clear
8:53 PM 57.0 °F 42.1 °F 57% 30.15 in 10.0 mi West 5.8 mph - N/A   Clear
9:53 PM 57.9 °F 41.0 °F 53% 30.16 in 10.0 mi NW 8.1 mph - 0.00 in   Clear
10:53 PM 53.1 °F 43.0 °F 69% 30.17 in 10.0 mi Calm Calm - 0.00 in   Clear
11:53 PM 50.0 °F 43.0 °F 77% 30.18 in 10.0 mi East 3.5 mph - N/A   Clear